sat.trackr.live / text

‹ back to catalog

KUIPER-00087

NORAD 64833 · 2025-151T

PAYLOAD ACTIVE UNKNOWN

§ Identity

Operator
Country
US
Launch date
2025-07-16
Launch site
AFETR
Launch vehicle
Mass (kg)
RCS (m²)

External: N2YO · Heavens-Above · Gunter

§ Orbital elements

Epoch: 2026-09-21T20:30:36.380736Z

Period
97.30 min
Inclination
51.8993°
Eccentricity
0.0000855
Mean motion
14.79960030 rev/d
Perigee alt
628.9 km
Apogee alt
630.0 km
Semi-major
7,007.6 km
B*
2.4012e-4
RAAN
133.1299°
Arg perigee
92.9049°
Mean anomaly
267.2011°
Rev number
6,462

§ Raw data

KUIPER-000871 64833U 25151T   26264.85458774  .00001611  00000+0  24012-3 0  99962 64833  51.8993 133.1299 0000855  92.9049 267.2011 14.79960030 64626

JSON: /api/v1/satellites/64833 · /tle

For live sub-satellite position, see the globe view (requires WebGL).

§ Visibility from observer

Set your observer location to see the next 7 days of passes ≥ 10°. The values pass through the URL so the page stays shareable.

No JS? Fill the form by hand. The geolocation button needs JavaScript.